TimeEDT,TemperatureF,Dew PointF,Humidity,Sea Level PressureIn,VisibilityMPH,Wind Direction,Wind SpeedMPH,Gust SpeedMPH,PrecipitationIn,Events,Conditions,WindDirDegrees,DateUTC
12:15 AM,48.2,42.8,82,29.78,10.0,Calm,Calm,-,N/A,,Clear,0,2013-09-23 04:15:00
12:35 AM,48.2,41.0,76,29.79,10.0,NNW,3.5,-,N/A,,Clear,330,2013-09-23 04:35:00
12:55 AM,48.2,39.2,71,-9999,10.0,NNW,6.9,-,N/A,,Clear,330,2013-09-23 04:55:00
1:15 AM,48.2,39.2,71,29.79,10.0,North,3.5,-,N/A,,Clear,10,2013-09-23 05:15:00
1:35 AM,48.2,39.2,71,29.78,10.0,NNE,4.6,-,N/A,,Clear,20,2013-09-23 05:35:00
1:55 AM,48.2,39.2,71,29.78,10.0,NNW,5.8,-,N/A,,Clear,330,2013-09-23 05:55:00
2:15 AM,48.2,39.2,71,29.79,10.0,NNW,6.9,-,N/A,,Clear,330,2013-09-23 06:15:00
2:35 AM,48.2,39.2,71,29.80,10.0,NNW,5.8,-,N/A,,Clear,340,2013-09-23 06:35:00
2:55 AM,48.2,39.2,71,29.79,10.0,NW,5.8,-,N/A,,Clear,310,2013-09-23 06:55:00
3:15 AM,48.2,39.2,71,29.79,10.0,NW,10.4,17.3,N/A,,Clear,310,2013-09-23 07:15:00
3:35 AM,48.2,39.2,71,29.80,10.0,NW,5.8,-,N/A,,Clear,320,2013-09-23 07:35:00
3:55 AM,48.2,37.4,66,29.80,10.0,WNW,3.5,-,N/A,,Scattered Clouds,290,2013-09-23 07:55:00
4:15 AM,48.2,37.4,66,29.80,10.0,WNW,6.9,-,N/A,,Partly Cloudy,290,2013-09-23 08:15:00
4:35 AM,46.4,35.6,66,29.81,10.0,NNW,8.1,-,N/A,,Clear,330,2013-09-23 08:35:00
4:55 AM,46.4,35.6,66,29.81,10.0,NW,6.9,-,N/A,,Clear,320,2013-09-23 08:55:00
5:15 AM,46.4,37.4,71,29.82,10.0,NNW,8.1,-,N/A,,Clear,340,2013-09-23 09:15:00
5:35 AM,44.6,35.6,71,29.83,10.0,NNW,6.9,-,N/A,,Clear,330,2013-09-23 09:35:00
5:55 AM,44.6,35.6,71,29.82,10.0,NW,6.9,-,N/A,,Clear,310,2013-09-23 09:55:00
6:15 AM,44.6,35.6,71,29.83,10.0,NW,8.1,-,N/A,,Clear,320,2013-09-23 10:15:00
6:35 AM,44.6,35.6,71,29.83,10.0,NW,5.8,-,N/A,,Clear,310,2013-09-23 10:35:00
6:55 AM,44.6,35.6,71,29.84,10.0,North,5.8,-,N/A,,Clear,360,2013-09-23 10:55:00
7:15 AM,46.4,35.6,66,29.84,10.0,NW,5.8,-,N/A,,Clear,310,2013-09-23 11:15:00
7:35 AM,46.4,35.6,66,29.85,10.0,NNW,8.1,-,N/A,,Clear,340,2013-09-23 11:35:00
7:55 AM,46.4,35.6,66,29.85,10.0,NW,10.4,-,N/A,,Clear,310,2013-09-23 11:55:00
8:15 AM,48.2,35.6,62,29.85,10.0,NW,10.4,-,N/A,,Clear,320,2013-09-23 12:15:00
8:35 AM,48.2,35.6,62,29.86,10.0,NW,13.8,19.6,N/A,,Clear,320,2013-09-23 12:35:00
8:55 AM,48.2,35.6,62,29.86,10.0,NW,12.7,-,N/A,,Clear,310,2013-09-23 12:55:00
9:15 AM,51.8,35.6,54,29.87,10.0,NW,15.0,21.9,N/A,,Partly Cloudy,310,2013-09-23 13:15:00
9:35 AM,51.8,37.4,58,29.87,10.0,NNW,16.1,-,N/A,,Partly Cloudy,330,2013-09-23 13:35:00
9:55 AM,51.8,37.4,58,29.88,10.0,NNW,12.7,-,N/A,,Scattered Clouds,330,2013-09-23 13:55:00
10:15 AM,51.8,35.6,54,29.88,10.0,NNW,12.7,21.9,N/A,,Mostly Cloudy,330,2013-09-23 14:15:00
10:35 AM,51.8,37.4,58,29.88,10.0,NNW,15.0,21.9,N/A,,Mostly Cloudy,330,2013-09-23 14:35:00
10:55 AM,53.6,35.6,51,29.88,10.0,NNW,18.4,27.6,0.07,,Scattered Clouds,340,2013-09-23 14:55:00
11:15 AM,53.6,37.4,54,29.89,10.0,NW,15.0,27.6,0.05,,Scattered Clouds,320,2013-09-23 15:15:00
11:35 AM,55.4,35.6,47,29.89,10.0,NW,19.6,29.9,0.08,,Mostly Cloudy,320,2013-09-23 15:35:00
11:55 AM,53.6,35.6,51,29.90,10.0,NW,11.5,25.3,0.11,,Overcast,320,2013-09-23 15:55:00
12:15 PM,53.6,37.4,54,29.90,10.0,WNW,15.0,20.7,0.02,,Overcast,300,2013-09-23 16:15:00
12:35 PM,53.6,35.6,51,29.90,10.0,NNW,17.3,21.9,0.04,,Overcast,330,2013-09-23 16:35:00
12:55 PM,53.6,37.4,54,29.90,10.0,NNW,20.7,26.5,0.05,,Mostly Cloudy,330,2013-09-23 16:55:00
1:15 PM,53.6,35.6,51,29.90,10.0,NNW,13.8,20.7,0.01,,Mostly Cloudy,330,2013-09-23 17:15:00
1:35 PM,53.6,37.4,54,29.90,10.0,NNW,12.7,-,0.02,,Overcast,330,2013-09-23 17:35:00
2:15 PM,53.6,35.6,51,29.90,10.0,NNW,19.6,23.0,N/A,,Mostly Cloudy,330,2013-09-23 18:15:00
2:35 PM,53.6,35.6,51,29.91,10.0,NNW,17.3,26.5,N/A,,Overcast,330,2013-09-23 18:35:00
2:55 PM,53.6,37.4,54,29.90,10.0,NW,17.3,21.9,N/A,,Overcast,320,2013-09-23 18:55:00
3:15 PM,53.6,35.6,51,29.90,10.0,NNW,18.4,24.2,N/A,,Overcast,330,2013-09-23 19:15:00
3:35 PM,53.6,37.4,54,29.91,10.0,NW,12.7,-,N/A,,Overcast,310,2013-09-23 19:35:00
3:55 PM,53.6,37.4,54,29.91,10.0,NW,10.4,19.6,0.01,,Overcast,320,2013-09-23 19:55:00
4:15 PM,53.6,37.4,54,29.91,10.0,NNW,16.1,23.0,N/A,,Overcast,330,2013-09-23 20:15:00
4:35 PM,51.8,37.4,58,29.91,10.0,NW,12.7,19.6,0.01,,Overcast,310,2013-09-23 20:35:00
4:55 PM,51.8,37.4,58,29.91,10.0,NW,15.0,23.0,0.01,,Overcast,320,2013-09-23 20:55:00
5:15 PM,51.8,37.4,58,29.92,10.0,NNW,16.1,20.7,N/A,,Overcast,330,2013-09-23 21:15:00
5:35 PM,51.8,37.4,58,29.93,10.0,NNW,6.9,19.6,0.01,,Overcast,340,2013-09-23 21:35:00
5:55 PM,51.8,37.4,58,29.93,10.0,NW,10.4,-,0.01,,Overcast,310,2013-09-23 21:55:00
6:15 PM,51.8,37.4,58,29.94,10.0,NW,12.7,16.1,N/A,,Overcast,310,2013-09-23 22:15:00
6:35 PM,51.8,37.4,58,29.94,10.0,WNW,6.9,-,0.01,,Overcast,300,2013-09-23 22:35:00
6:55 PM,50.0,37.4,62,29.94,10.0,NNW,5.8,-,0.01,,Overcast,330,2013-09-23 22:55:00
7:15 PM,48.2,37.4,66,29.95,10.0,NW,3.5,-,N/A,,Overcast,310,2013-09-23 23:15:00
7:35 PM,48.2,37.4,66,29.95,10.0,NW,6.9,-,N/A,,Overcast,320,2013-09-23 23:35:00
7:55 PM,50.0,37.4,62,29.95,10.0,NW,6.9,-,0.01,,Overcast,310,2013-09-23 23:55:00
8:15 PM,50.0,37.4,62,29.95,10.0,WNW,5.8,-,N/A,,Overcast,290,2013-09-24 00:15:00
8:35 PM,50.0,37.4,62,29.95,10.0,West,4.6,-,N/A,,Overcast,280,2013-09-24 00:35:00
8:55 PM,48.2,37.4,66,29.95,10.0,WSW,4.6,-,N/A,,Overcast,250,2013-09-24 00:55:00
9:15 PM,48.2,37.4,66,29.94,10.0,WSW,5.8,-,N/A,,Overcast,240,2013-09-24 01:15:00
9:35 PM,48.2,37.4,66,29.94,10.0,WSW,5.8,-,N/A,,Overcast,240,2013-09-24 01:35:00
9:55 PM,48.2,37.4,66,29.94,10.0,WSW,3.5,-,N/A,,Overcast,250,2013-09-24 01:55:00
10:15 PM,46.4,37.4,71,29.94,10.0,WSW,3.5,-,N/A,,Scattered Clouds,240,2013-09-24 02:15:00
10:35 PM,44.6,37.4,76,29.94,10.0,SW,3.5,-,0.01,,Clear,230,2013-09-24 02:35:00
10:55 PM,46.4,37.4,71,29.93,10.0,WNW,4.6,-,0.01,,Clear,300,2013-09-24 02:55:00
11:15 PM,46.4,37.4,71,29.93,10.0,WNW,3.5,-,N/A,,Clear,290,2013-09-24 03:15:00
11:35 PM,46.4,37.4,71,29.93,10.0,Calm,Calm,-,N/A,,Clear,0,2013-09-24 03:35:00
11:55 PM,44.6,37.4,76,29.93,10.0,WNW,4.6,-,N/A,,Partly Cloudy,300,2013-09-24 03:55:00